Tavèrnoles





Hora UTC 22:35
Temperatura 6.9 ºC
Humitat 94.0 %
Pressió 1016.4 hPa
Pluja 2.0 mm
Velocitat vent 0.0 km/h
Direcció vent NNW
Radiació solar 0.0 W/m²

Dades diàries 2020-03-31



Hora UTC (hivern +1h; estiu +2h)
Temperatura (ºC) Humitat (%) Pressió (hPa) Velocitat vent (km/h) Precipitació (mm) Radiació solar (W/m²)
Hora UTC Aire Humitat Pressió Vel. Dir. Vel. Max Dir. Intent. màx 5 min. Rad. Sol.
00:05 4.7 96.0 1014.8 0.0 S 0.0 0.0 0.0
00:10 4.8 96.0 1014.7 0.0 S 0.0 0.0 0.0
00:15 4.8 96.0 1014.9 0.0 S 0.0 0.0 0.0
00:20 4.8 96.0 1014.9 0.0 S 0.0 0.0 0.0
00:25 4.9 96.0 1015.0 0.0 S 0.0 0.0 0.0
00:30 4.9 96.0 1014.9 0.0 S 0.0 0.0 0.0
00:35 5.0 96.0 1014.8 0.0 S 0.0 0.0 0.0
00:40 5.1 96.0 1014.8 0.0 S 0.0 0.0 0.0
00:45 5.1 96.0 1014.7 0.0 S 0.0 0.0 0.0
00:45 5.2 96.0 1014.7 0.0 S 0.0 0.0 0.0
00:55 5.2 96.0 1014.6 0.0 S 0.0 0.0 0.0
01:00 5.2 96.0 1014.5 0.0 S 0.0 0.0 0.0
01:05 5.2 96.0 1014.5 0.0 S 0.0 0.0 0.0
01:10 5.2 96.0 1014.5 0.0 S 0.0 0.0 0.0
01:15 5.2 96.0 1014.4 0.0 S 0.0 0.0 0.0
01:20 5.2 96.0 1014.5 0.0 S 0.0 0.0 0.0
01:25 5.2 96.0 1014.4 0.0 S 0.0 0.0 0.0
01:30 5.3 96.0 1014.3 0.0 S 0.0 0.0 0.0
01:35 5.3 96.0 1014.2 0.0 S 0.0 0.0 0.0
01:40 5.3 96.0 1014.2 0.0 S 0.0 0.0 0.0
01:45 5.4 96.0 1014.1 0.0 S 0.0 0.0 0.0
01:45 5.4 96.0 1014.1 0.0 S 0.0 0.0 0.0
01:55 5.4 96.0 1014.0 0.0 S 0.0 0.0 0.0
02:00 5.4 96.0 1014.0 0.0 S 0.0 0.0 0.0
02:05 5.4 96.0 1013.9 0.0 S 1.6 0.0 0.0
02:10 5.4 96.0 1013.9 0.0 S 1.6 0.0 0.0
02:15 5.4 96.0 1013.9 0.0 S 0.0 0.0 0.0
02:20 5.5 96.0 1014.0 0.0 S 0.0 0.0 0.0
02:25 5.5 96.0 1014.0 0.0 S 0.0 0.0 0.0
02:30 5.5 96.0 1014.0 0.0 S 0.0 0.0 0.0
02:35 5.5 96.0 1013.9 1.6 ESE 3.2 0.0 0.0
02:40 5.4 96.0 1014.0 0.0 ESE 3.2 0.0 0.0
02:45 5.3 95.0 1014.0 0.0 N 12.9 0.0 0.0
02:45 5.3 95.0 1014.1 0.0 NNW 12.9 0.0 0.0
02:55 5.4 95.0 1014.1 0.0 W 1.6 0.0 0.0
03:00 5.4 94.0 1014.1 0.0 W 0.0 0.0 0.0
03:05 5.4 94.0 1014.1 0.0 W 0.0 0.0 0.0
03:10 5.4 94.0 1014.0 0.0 W 0.0 0.0 0.0
03:15 5.4 94.0 1014.0 0.0 S 1.6 0.0 0.0
03:20 5.4 93.0 1013.9 0.0 NW 1.6 0.0 0.0
03:25 5.4 93.0 1014.0 0.0 S 1.6 0.0 0.0
03:30 5.5 93.0 1014.0 0.0 SSE 1.6 0.0 0.0
03:35 5.5 92.0 1013.9 0.0 SSE 1.6 0.0 0.0
03:40 5.5 92.0 1013.9 0.0 SSE 1.6 0.0 0.0
03:45 5.6 92.0 1014.0 0.0 SE 0.0 0.0 0.0
03:45 5.6 92.0 1014.0 0.0 SE 0.0 0.0 0.0
03:55 5.6 92.0 1014.3 0.0 SSE 3.2 0.0 0.0
04:00 5.6 91.0 1014.3 0.0 N 3.2 0.0 0.0
04:05 5.6 91.0 1014.4 0.0 NNW 3.2 0.0 0.0
04:10 5.7 91.0 1014.4 0.0 W 0.0 0.0 0.0
04:15 5.6 91.0 1014.4 0.0 ESE 4.8 0.0 0.0
04:20 5.7 91.0 1014.4 0.0 SSE 4.8 0.0 0.0
04:25 5.7 90.0 1014.4 0.0 SSE 3.2 0.0 0.0
04:30 5.7 90.0 1014.4 0.0 SW 1.6 0.0 0.0
04:35 5.7 91.0 1014.5 0.0 SW 1.6 0.0 0.0
04:40 5.7 90.0 1014.4 1.6 SSW 6.4 0.0 0.0
04:45 5.7 90.0 1014.3 1.6 SSW 6.4 0.0 0.0
04:45 5.7 90.0 1014.3 0.0 SW 6.4 0.0 0.0
04:55 5.6 91.0 1014.2 0.0 S 1.6 0.0 0.0
05:00 5.6 90.0 1014.2 0.0 W 3.2 0.0 0.0
05:05 5.6 91.0 1014.2 0.0 SW 3.2 0.0 0.0
05:10 5.6 91.0 1014.1 0.0 SW 1.6 0.0 0.0
05:15 5.5 91.0 1014.1 0.0 SW 1.6 0.0 0.0
05:20 5.5 91.0 1014.0 0.0 SW 1.6 0.0 0.0
05:25 5.5 91.0 1014.1 0.0 NW 4.8 0.0 0.0
05:30 5.6 91.0 1014.2 0.0 NW 4.8 0.0 0.0
05:35 5.6 91.0 1014.3 0.0 W 1.6 0.0 0.0
05:40 5.6 90.0 1014.4 0.0 NW 11.3 0.0 0.0
05:45 5.8 90.0 1014.5 4.8 NNE 11.3 0.0 0.0
05:45 5.8 90.0 1014.5 3.2 NE 11.3 0.0 0.0
05:55 5.9 90.0 1014.6 1.6 NE 9.7 0.0 16.0
06:00 5.9 89.0 1014.8 0.0 NNW 9.7 0.0 25.0
06:05 6.0 89.0 1015.0 0.0 SSE 9.7 0.0 28.0
06:10 6.1 88.0 1015.1 0.0 SSW 6.4 0.0 32.0
06:15 6.1 89.0 1015.2 0.0 ENE 4.8 0.0 28.0
06:20 6.2 89.0 1015.2 0.0 NNW 4.8 0.0 32.0
06:25 6.2 89.0 1015.3 0.0 NNW 3.2 0.0 46.0
06:30 6.3 90.0 1015.2 0.0 NNW 0.0 0.0 47.0
06:35 6.3 89.0 1015.1 1.6 NNW 1.6 0.0 62.0
06:40 6.3 88.0 1015.0 3.2 NNE 9.7 0.0 67.0
06:45 6.4 88.0 1015.0 3.2 NE 9.7 0.0 74.0
06:45 6.4 88.0 1015.0 0.0 NE 9.7 0.0 77.0
06:55 6.5 89.0 1014.9 0.0 NW 6.4 0.0 72.0
07:00 6.5 89.0 1015.0 0.0 NE 8.0 0.0 69.0
07:05 6.6 88.0 1015.0 0.0 NNW 8.0 0.0 76.0
07:10 6.6 88.0 1014.9 4.8 NNW 8.0 0.0 84.0
07:15 6.7 88.0 1014.9 3.2 NNW 9.7 0.0 100.0
07:20 6.8 88.0 1014.9 4.8 NNW 9.7 0.0 113.0
07:25 6.8 88.0 1014.8 4.8 N 9.7 0.0 120.0
07:30 7.0 88.0 1014.8 1.6 NNE 9.7 0.0 120.0
07:35 7.2 89.0 1014.9 0.0 WNW 8.0 0.0 118.0
07:40 7.2 88.0 1014.9 0.0 N 4.8 0.0 130.0
07:45 7.3 89.0 1015.0 0.0 N 3.2 0.0 144.0
07:45 7.4 88.0 1015.0 0.0 NW 3.2 0.0 146.0
07:55 7.7 88.0 1015.1 0.0 WSW 3.2 0.0 163.0
08:00 7.8 88.0 1015.0 0.0 WSW 3.2 0.0 162.0
08:05 8.0 87.0 1015.1 0.0 WSW 1.6 0.0 162.0
08:10 8.2 88.0 1015.1 0.0 WSW 1.6 0.0 193.0
08:15 8.3 86.0 1015.1 4.8 N 6.4 0.0 243.0
08:20 8.4 86.0 1015.1 4.8 ENE 6.4 0.0 283.0
08:25 8.6 85.0 1015.1 1.6 N 4.8 0.0 269.0
08:30 8.8 85.0 1015.1 1.6 NNW 4.8 0.0 197.0
08:35 8.9 84.0 1015.0 0.0 NNE 9.7 0.0 248.0
08:40 8.9 83.0 1015.0 0.0 NNW 9.7 0.0 193.0
08:45 9.1 85.0 1015.0 0.0 N 1.6 0.0 165.0
08:45 9.1 84.0 1015.0 0.0 N 1.6 0.0 156.0
08:55 9.2 84.0 1015.1 0.0 N 4.8 0.0 156.0
09:00 9.2 84.0 1015.1 1.6 NW 8.0 0.0 135.0
09:05 9.2 84.0 1015.1 0.0 WSW 8.0 0.0 125.0
09:10 9.2 84.0 1015.0 0.0 SW 3.2 0.0 116.0
09:15 9.3 84.0 1015.0 0.0 SW 1.6 0.0 109.0
09:20 9.3 84.0 1015.0 0.0 NW 4.8 0.0 116.0
09:25 9.2 85.0 1015.0 0.0 NW 6.4 0.0 105.0
09:30 9.2 84.0 1015.1 0.0 NW 6.4 0.0 95.0
09:35 9.2 85.0 1015.1 0.0 NW 3.2 0.0 100.0
09:40 9.1 83.0 1015.1 0.0 NW 1.6 0.0 102.0
09:45 9.1 83.0 1015.0 0.0 NW 1.6 0.0 111.0
09:45 9.1 84.0 1015.0 0.0 NW 0.0 0.0 113.0
09:55 9.3 84.0 1015.1 0.0 NW 0.0 0.0 98.0
10:00 9.3 85.0 1015.1 0.0 NW 0.0 0.0 88.0
10:05 9.3 84.0 1015.1 1.6 SSW 3.2 0.0 98.0
10:10 9.2 84.0 1015.1 0.0 SSW 4.8 0.0 93.0
10:15 9.2 84.0 1015.2 0.0 SSW 4.8 0.0 79.0
10:20 9.1 84.0 1015.1 0.0 WSW 4.8 0.0 70.0
10:25 9.1 84.0 1015.1 0.0 WSW 1.6 0.0 70.0
10:30 8.9 84.0 1015.1 4.8 SSE 9.7 0.0 81.0
10:35 8.9 84.0 1015.1 0.0 SSE 9.7 0.0 100.0
10:40 9.0 84.0 1015.0 0.0 SSE 8.0 0.0 121.0
10:45 9.1 85.0 1014.9 0.0 S 1.6 0.0 139.0
10:45 9.2 85.0 1014.9 0.0 NW 4.8 0.0 137.0
10:55 9.3 84.0 1014.9 4.8 NNW 9.7 0.0 114.0
11:00 9.3 84.0 1014.9 0.0 NNE 16.1 0.0 109.0
11:05 9.3 84.0 1014.9 0.0 NE 16.1 0.0 105.0
11:10 9.4 85.0 1014.9 0.0 SE 1.6 0.0 102.0
11:15 9.5 84.0 1014.8 0.0 NNE 3.2 0.0 107.0
11:20 9.4 84.0 1014.7 4.8 NNE 8.0 0.0 107.0
11:25 9.4 85.0 1014.6 4.8 NNW 12.9 0.0 102.0
11:30 9.4 85.0 1014.6 0.0 N 12.9 0.0 109.0
11:35 9.5 86.0 1014.6 0.0 SW 12.9 0.0 120.0
11:40 9.5 84.0 1014.6 0.0 NNW 8.0 0.0 123.0
11:45 9.6 84.0 1014.6 0.0 NNW 8.0 0.0 127.0
11:45 9.6 84.0 1014.7 0.0 NW 8.0 0.0 128.0
11:55 9.8 84.0 1014.7 0.0 NNW 6.4 0.0 139.0
12:00 9.9 85.0 1014.7 0.0 NNW 6.4 0.0 146.0
12:05 9.9 83.0 1014.6 0.0 NNW 6.4 0.0 158.0
12:10 10.1 83.0 1014.6 1.6 NW 9.7 0.0 156.0
12:15 10.2 83.0 1014.6 0.0 NW 9.7 0.0 139.0
12:20 10.3 83.0 1014.6 3.2 S 8.0 0.0 135.0
12:25 10.3 83.0 1014.6 0.0 NE 9.7 0.0 121.0
12:30 10.3 82.0 1014.6 0.0 SSE 9.7 0.0 104.0
12:35 10.3 83.0 1014.6 0.0 SE 4.8 0.0 93.0
12:40 10.2 82.0 1014.7 6.4 S 14.5 0.0 83.0
12:45 10.1 82.0 1014.6 3.2 S 14.5 0.0 70.0
12:45 10.1 82.0 1014.7 1.6 SSE 14.5 0.0 67.0
12:55 10.1 82.0 1014.7 0.0 S 9.7 0.0 62.0
13:00 10.0 82.0 1014.7 0.0 S 9.7 0.0 62.0
13:05 10.0 83.0 1014.7 0.0 SSW 4.8 0.0 62.0
13:10 10.0 82.0 1014.6 0.0 NE 6.4 0.0 63.0
13:15 10.0 83.0 1014.7 0.0 WNW 6.4 0.0 62.0
13:20 10.0 83.0 1014.7 0.0 WNW 3.2 0.0 62.0
13:25 10.1 84.0 1014.7 0.0 WNW 1.6 0.0 63.0
13:30 10.0 83.0 1014.7 0.0 SSW 4.8 0.0 63.0
13:35 9.9 83.0 1014.8 6.4 SSE 8.0 0.0 70.0
13:40 9.9 82.0 1014.7 3.2 SE 8.0 0.0 70.0
13:45 10.0 83.0 1014.7 1.6 SSE 8.0 0.0 65.0
13:45 10.0 83.0 1014.7 1.6 S 8.0 0.0 65.0
13:55 10.0 82.0 1014.7 0.0 NW 8.0 0.0 74.0
14:00 10.1 82.0 1014.6 0.0 NW 4.8 0.0 81.0
14:05 10.1 82.0 1014.5 0.0 N 3.2 0.0 104.0
14:10 10.2 82.0 1014.5 0.0 N 3.2 0.0 102.0
14:15 10.3 82.0 1014.3 0.0 NNW 1.6 0.0 95.0
14:20 10.3 82.0 1014.4 0.0 NNW 3.2 0.0 88.0
14:25 10.3 83.0 1014.4 0.0 NNW 3.2 0.0 81.0
14:30 10.4 82.0 1014.4 0.0 W 3.2 0.0 70.0
14:35 10.4 82.0 1014.3 1.6 SSW 6.4 0.0 76.0
14:40 10.4 82.0 1014.3 0.0 S 8.0 0.0 97.0
14:45 10.4 82.0 1014.4 0.0 SW 8.0 0.0 102.0
14:45 10.4 82.0 1014.3 0.0 SSW 8.0 0.0 104.0
14:55 10.6 82.0 1014.4 0.0 S 3.2 0.0 116.0
15:00 10.6 81.0 1014.4 0.0 SSW 1.6 0.0 111.0
15:05 10.7 81.0 1014.4 1.6 NW 4.8 0.0 104.0
15:10 10.7 80.0 1014.4 0.0 NNE 4.8 0.0 100.0
15:15 10.7 81.0 1014.3 1.6 SSW 4.8 0.0 113.0
15:20 10.6 80.0 1014.4 0.0 NW 8.0 0.0 114.0
15:25 10.6 81.0 1014.3 0.0 NE 8.0 0.0 113.0
15:30 10.6 81.0 1014.4 0.0 E 14.5 0.0 107.0
15:35 10.6 81.0 1014.4 0.0 N 14.5 0.0 100.0
15:40 10.5 82.0 1014.3 0.0 SSW 8.0 0.0 79.0
15:45 10.4 81.0 1014.4 0.0 SSE 4.8 0.0 65.0
15:45 10.4 82.0 1014.4 0.0 S 4.8 0.0 62.0
15:55 10.3 83.0 1014.4 0.0 SW 3.2 0.0 53.0
16:00 10.2 82.0 1014.4 0.0 WNW 3.2 0.0 51.0
16:05 10.1 82.0 1014.5 0.0 W 1.6 0.0 49.0
16:10 10.1 82.0 1014.4 0.0 NW 1.6 0.0 47.0
16:15 10.0 82.0 1014.5 0.0 ENE 4.8 0.0 44.0
16:20 9.9 83.0 1014.4 1.6 NNE 4.8 0.0 42.0
16:25 9.9 83.0 1014.4 0.0 ENE 6.4 0.0 39.0
16:30 9.8 83.0 1014.4 0.0 NE 8.0 0.0 35.0
16:35 9.8 84.0 1014.4 0.0 NE 8.0 0.0 32.0
16:40 9.8 84.0 1014.5 0.0 E 0.0 0.0 28.0
16:45 9.8 84.0 1014.5 0.0 E 0.0 0.0 26.0
16:45 9.7 84.0 1014.5 0.0 S 4.8 0.0 25.0
16:55 9.7 84.0 1014.6 0.0 S 3.2 0.0 25.0
17:00 9.6 84.0 1014.7 0.0 SSW 8.0 0.0 26.0
17:05 9.5 84.0 1014.7 0.0 SW 9.7 0.0 23.0
17:10 9.4 85.0 1014.6 0.0 SSW 9.7 0.0 21.0
17:15 9.3 84.0 1014.8 4.8 S 9.7 0.0 21.0
17:20 9.3 85.0 1014.8 0.0 SE 9.7 0.0 19.0
17:25 9.2 85.0 1014.9 4.8 S 6.4 0.0 18.0
17:30 9.2 85.0 1014.9 0.0 ENE 11.3 0.0 16.0
17:35 9.1 85.0 1014.9 0.0 ESE 11.3 0.0 12.0
17:40 9.1 86.0 1014.9 0.0 ESE 9.7 0.0 9.0
17:45 8.9 86.0 1014.9 0.0 NNW 8.0 0.0 7.0
17:45 8.9 86.0 1014.8 0.0 NNE 8.0 0.0 5.0
17:55 8.8 87.0 1014.9 0.0 SW 4.8 0.0 0.0
18:00 8.8 87.0 1015.0 0.0 N 1.6 0.0 0.0
18:05 8.7 88.0 1015.0 0.0 NW 1.6 0.2 0.0
18:10 8.6 88.0 1015.2 0.0 E 11.3 0.0 0.0
18:15 8.6 88.0 1015.3 0.0 SSE 11.3 0.0 0.0
18:20 8.4 89.0 1015.3 0.0 SSE 4.8 0.0 0.0
18:25 8.3 89.0 1015.4 0.0 E 4.8 0.0 0.0
18:30 8.2 89.0 1015.4 1.6 SSE 3.2 0.2 0.0
18:35 8.1 90.0 1015.5 3.2 SSE 6.4 0.0 0.0
18:40 8.1 90.0 1015.5 0.0 ENE 6.4 0.0 0.0
18:45 8.0 90.0 1015.7 3.2 NW 6.4 0.2 0.0
18:45 8.0 90.0 1015.7 0.0 NW 4.8 0.0 0.0
18:55 7.9 90.0 1015.8 0.0 NW 4.8 0.2 0.0
19:00 7.8 90.0 1016.0 1.6 SSE 4.8 0.0 0.0
19:05 7.8 91.0 1016.2 0.0 SSE 4.8 0.2 0.0
19:10 7.7 91.0 1016.1 0.0 W 3.2 0.0 0.0
19:15 7.7 91.0 1016.2 0.0 NW 3.2 0.2 0.0
19:20 7.6 91.0 1016.2 0.0 NW 1.6 0.0 0.0
19:25 7.5 92.0 1016.3 0.0 NNE 3.2 0.0 0.0
19:30 7.5 91.0 1016.3 0.0 N 3.2 0.0 0.0
19:35 7.4 92.0 1016.3 0.0 N 3.2 0.2 0.0
19:40 7.4 92.0 1016.3 0.0 N 0.0 0.0 0.0
19:45 7.3 92.0 1016.3 0.0 N 0.0 0.0 0.0
19:45 7.3 92.0 1016.3 0.0 N 1.6 0.2 0.0
19:55 7.3 92.0 1016.3 0.0 NE 4.8 0.0 0.0
20:00 7.3 92.0 1016.3 0.0 NNE 6.4 0.0 0.0
20:05 7.3 92.0 1016.4 3.2 ENE 6.4 0.0 0.0
20:10 7.2 92.0 1016.3 0.0 NNE 3.2 0.2 0.0
20:15 7.2 93.0 1016.4 0.0 NE 3.2 0.0 0.0
20:20 7.2 93.0 1016.5 0.0 NE 0.0 0.2 0.0
20:25 7.1 93.0 1016.5 0.0 NE 0.0 0.0 0.0
20:30 7.1 93.0 1016.5 0.0 NE 0.0 0.0 0.0
20:35 7.1 93.0 1016.5 0.0 NE 0.0 0.0 0.0
20:40 7.1 93.0 1016.5 0.0 NE 0.0 0.0 0.0
20:45 7.0 93.0 1016.5 0.0 NE 0.0 0.0 0.0
20:45 7.0 94.0 1016.5 0.0 NE 0.0 0.0 0.0
20:55 6.9 94.0 1016.6 0.0 NE 0.0 0.0 0.0
21:00 6.9 94.0 1016.5 0.0 NNE 0.0 0.0 0.0
21:05 6.9 94.0 1016.6 0.0 NNE 0.0 0.0 0.0
21:10 6.9 94.0 1016.6 0.0 NNW 1.6 0.0 0.0
21:15 6.9 94.0 1016.6 0.0 NNW 1.6 0.0 0.0
21:20 6.9 94.0 1016.6 1.6 N 1.6 0.0 0.0
21:25 7.0 94.0 1016.6 0.0 NW 8.0 0.0 0.0
21:30 7.1 94.0 1016.6 0.0 NW 8.0 0.0 0.0
21:35 7.1 94.0 1016.6 0.0 NW 6.4 0.0 0.0
21:40 7.0 94.0 1016.6 0.0 NNW 0.0 0.0 0.0
21:45 7.0 94.0 1016.5 0.0 NE 1.6 0.0 0.0
21:45 7.0 94.0 1016.5 0.0 NNW 1.6 0.0 0.0
21:55 6.9 94.0 1016.5 0.0 NW 0.0 0.0 0.0
22:00 6.9 94.0 1016.5 0.0 NW 0.0 0.0 0.0
22:05 6.9 94.0 1016.5 0.0 NW 0.0 0.0 0.0
22:10 6.9 94.0 1016.6 0.0 NNW 0.0 0.0 0.0
22:15 6.9 94.0 1016.5 0.0 NNW 0.0 0.0 0.0
22:20 6.9 94.0 1016.5 0.0 NNW 0.0 0.0 0.0
22:25 6.9 94.0 1016.4 0.0 NNW 0.0 0.0 0.0
22:30 6.9 94.0 1016.4 0.0 NNW 0.0 0.0 0.0
22:35 6.9 94.0 1016.4 0.0 NNW 0.0 0.0 0.0
Màxima 10.7 96.0 1016.6 6.4 SSE 16.1 0.2 283.0
Mínima 4.7 80.0 1013.9
Total 2.0